Time,TemperatureF,DewpointF,PressureIn,WindDirection,WindDirectionDegrees,WindSpeedMPH,WindSpeedGustMPH,Humidity,HourlyPrecipIn,Conditions,Clouds,dailyrainin,SolarRadiationWatts/m^2,SoftwareType,DateUTC
2013-03-11 00:02:00,43.0,18.0,30.20,SW,234,7.0,12.0,36,-99.99,,,-99.99,0.000000,,2013-03-11 06:02:00,
2013-03-11 00:12:00,43.0,18.0,30.20,SW,234,7.0,12.0,36,-99.99,,,-99.99,0.000000,,2013-03-11 06:12:00,
2013-03-11 01:32:00,41.0,18.0,30.19,West,277,10.0,16.0,39,-99.99,,,-99.99,0.000000,,2013-03-11 07:32:00,
2013-03-11 01:42:00,41.0,18.0,30.19,WNW,285,12.0,16.0,40,-99.99,,,-99.99,0.000000,,2013-03-11 07:42:00,
2013-03-11 01:52:00,41.0,18.0,30.19,WNW,285,12.0,16.0,40,-99.99,,,-99.99,0.000000,,2013-03-11 07:52:00,
2013-03-11 02:02:00,40.0,19.0,30.19,West,271,11.0,17.0,41,-99.99,,,-99.99,0.000000,,2013-03-11 08:02:00,
2013-03-11 02:12:00,41.0,19.0,30.18,WSW,241,15.0,21.0,40,-99.99,,,-99.99,0.000000,,2013-03-11 08:12:00,
2013-03-11 02:22:00,41.0,19.0,30.18,WSW,241,15.0,21.0,40,-99.99,,,-99.99,0.000000,,2013-03-11 08:22:00,
2013-03-11 02:32:00,41.0,19.0,30.18,WSW,241,15.0,21.0,40,-99.99,,,-99.99,0.000000,,2013-03-11 08:32:00,
2013-03-11 02:42:00,43.0,19.0,30.17,SW,236,18.0,21.0,37,-99.99,,,-99.99,0.000000,,2013-03-11 08:42:00,
2013-03-11 02:52:00,43.0,19.0,30.17,SW,236,18.0,21.0,37,-99.99,,,-99.99,0.000000,,2013-03-11 08:52:00,
2013-03-11 03:02:00,42.0,19.0,30.17,WSW,248,16.0,21.0,39,-99.99,,,-99.99,0.000000,,2013-03-11 09:02:00,
2013-03-11 03:12:00,40.0,19.0,30.17,West,260,16.0,23.0,42,-99.99,,,-99.99,0.000000,,2013-03-11 09:12:00,
2013-03-11 03:23:00,40.0,19.0,30.17,West,260,16.0,23.0,42,-99.99,,,-99.99,0.000000,,2013-03-11 09:23:00,
2013-03-11 03:32:00,42.0,19.0,30.17,SW,233,19.0,24.0,38,-99.99,,,-99.99,0.000000,,2013-03-11 09:32:00,
2013-03-11 03:42:00,42.0,19.0,30.17,WSW,247,17.0,23.0,39,-99.99,,,-99.99,0.000000,,2013-03-11 09:42:00,
2013-03-11 03:52:00,42.0,19.0,30.17,WSW,247,17.0,23.0,39,-99.99,,,-99.99,0.000000,,2013-03-11 09:52:00,
2013-03-11 04:02:00,40.0,19.0,30.17,West,263,19.0,25.0,42,-99.99,,,-99.99,0.000000,,2013-03-11 10:02:00,
2013-03-11 04:12:00,41.0,19.0,30.17,WSW,253,20.0,25.0,40,-99.99,,,-99.99,0.000000,,2013-03-11 10:12:00,
2013-03-11 04:22:00,41.0,19.0,30.17,WSW,253,20.0,25.0,40,-99.99,,,-99.99,0.000000,,2013-03-11 10:22:00,
2013-03-11 04:32:00,41.0,19.0,30.16,WSW,243,22.0,27.0,40,-99.99,,,-99.99,0.000000,,2013-03-11 10:32:00,
2013-03-11 04:42:00,41.0,18.0,30.16,WSW,246,22.0,28.0,39,-99.99,,,-99.99,0.000000,,2013-03-11 10:42:00,
2013-03-11 04:52:00,41.0,18.0,30.16,WSW,246,22.0,28.0,39,-99.99,,,-99.99,0.000000,,2013-03-11 10:52:00,
2013-03-11 05:02:00,41.0,18.0,30.16,WSW,247,22.0,27.0,40,-99.99,,,-99.99,0.000000,,2013-03-11 11:02:00,
2013-03-11 05:12:00,41.0,18.0,30.16,WSW,251,22.0,27.0,40,-99.99,,,-99.99,0.000000,,2013-03-11 11:12:00,
2013-03-11 05:22:00,41.0,18.0,30.16,WSW,251,22.0,27.0,40,-99.99,,,-99.99,0.000000,,2013-03-11 11:22:00,
2013-03-11 05:32:00,40.0,18.0,30.16,WSW,251,23.0,27.0,40,-99.99,,,-99.99,0.000000,,2013-03-11 11:32:00,
2013-03-11 05:42:00,40.0,18.0,30.16,WSW,252,20.0,26.0,41,-99.99,,,-99.99,0.000000,,2013-03-11 11:42:00,
2013-03-11 05:53:00,40.0,18.0,30.16,WSW,252,20.0,26.0,41,-99.99,,,-99.99,0.000000,,2013-03-11 11:53:00,
2013-03-11 06:02:00,38.0,18.0,30.17,West,273,16.0,21.0,44,-99.99,,,-99.99,0.000000,,2013-03-11 12:02:00,
2013-03-11 06:12:00,38.0,18.0,30.18,West,279,15.0,19.0,43,-99.99,,,-99.99,0.000000,,2013-03-11 12:12:00,
2013-03-11 06:22:00,38.0,18.0,30.18,West,279,15.0,19.0,43,-99.99,,,-99.99,0.000000,,2013-03-11 12:22:00,
2013-03-11 06:32:00,38.0,18.0,30.18,West,280,15.0,19.0,44,-99.99,,,-99.99,0.000000,,2013-03-11 12:32:00,
2013-03-11 06:42:00,38.0,18.0,30.19,WNW,282,15.0,18.0,44,-99.99,,,-99.99,0.000000,,2013-03-11 12:42:00,
2013-03-11 06:53:00,38.0,18.0,30.19,WNW,282,15.0,18.0,44,-99.99,,,-99.99,0.000000,,2013-03-11 12:53:00,
2013-03-11 07:02:00,38.0,18.0,30.18,West,281,15.0,19.0,45,-99.99,,,-99.99,0.000000,,2013-03-11 13:02:00,
2013-03-11 07:12:00,38.0,18.0,30.19,WNW,282,16.0,20.0,45,-99.99,,,-99.99,0.000000,,2013-03-11 13:12:00,
2013-03-11 07:22:00,38.0,18.0,30.19,WNW,282,16.0,20.0,45,-99.99,,,-99.99,0.000000,,2013-03-11 13:22:00,
2013-03-11 07:32:00,38.0,19.0,30.19,WNW,282,14.0,17.0,45,-99.99,,,-99.99,0.000000,,2013-03-11 13:32:00,
2013-03-11 07:42:00,38.0,19.0,30.19,WNW,285,13.0,16.0,45,-99.99,,,-99.99,0.700000,,2013-03-11 13:42:00,
2013-03-11 07:53:00,38.0,19.0,30.19,WNW,285,13.0,16.0,45,-99.99,,,-99.99,0.700000,,2013-03-11 13:53:00,
2013-03-11 08:02:00,38.0,19.0,30.19,WNW,287,12.0,16.0,45,-99.99,,,-99.99,8.370000,,2013-03-11 14:02:00,
2013-03-11 08:12:00,38.0,19.0,30.19,WNW,287,12.0,16.0,44,-99.99,,,-99.99,42.540001,,2013-03-11 14:12:00,
2013-03-11 08:22:00,38.0,19.0,30.19,WNW,287,12.0,16.0,44,-99.99,,,-99.99,42.540001,,2013-03-11 14:22:00,
2013-03-11 08:32:00,38.0,19.0,30.19,West,276,11.0,14.0,45,-99.99,,,-99.99,101.110001,,2013-03-11 14:32:00,
2013-03-11 08:42:00,39.0,19.0,30.19,West,275,12.0,15.0,44,-99.99,,,-99.99,157.600006,,2013-03-11 14:42:00,
2013-03-11 08:53:00,39.0,19.0,30.19,West,275,12.0,15.0,44,-99.99,,,-99.99,157.600006,,2013-03-11 14:53:00,
2013-03-11 09:02:00,41.0,19.0,30.19,West,266,10.0,12.0,42,-99.99,,,-99.99,214.779999,,2013-03-11 15:02:00,
2013-03-11 09:12:00,42.0,20.0,30.20,West,271,9.0,13.0,40,-99.99,,,-99.99,271.959991,,2013-03-11 15:12:00,
2013-03-11 09:22:00,42.0,20.0,30.20,West,271,9.0,13.0,40,-99.99,,,-99.99,271.959991,,2013-03-11 15:22:00,
2013-03-11 09:32:00,41.0,20.0,30.20,West,279,9.0,13.0,42,-99.99,,,-99.99,330.540009,,2013-03-11 15:32:00,
2013-03-11 09:42:00,41.0,19.0,30.21,West,274,11.0,15.0,41,-99.99,,,-99.99,389.109985,,2013-03-11 15:42:00,
2013-03-11 09:53:00,41.0,19.0,30.21,West,274,11.0,15.0,41,-99.99,,,-99.99,389.109985,,2013-03-11 15:53:00,
2013-03-11 10:02:00,41.0,19.0,30.21,West,274,11.0,15.0,41,-99.99,,,-99.99,389.109985,,2013-03-11 16:02:00,
2013-03-11 10:12:00,41.0,19.0,30.22,West,271,11.0,14.0,40,-99.99,,,-99.99,498.589996,,2013-03-11 16:12:00,
2013-03-11 10:22:00,41.0,19.0,30.22,West,271,11.0,14.0,40,-99.99,,,-99.99,498.589996,,2013-03-11 16:22:00,
2013-03-11 10:32:00,41.0,19.0,30.22,West,266,12.0,15.0,40,-99.99,,,-99.99,550.890015,,2013-03-11 16:32:00,
2013-03-11 10:43:00,41.0,19.0,30.22,West,268,12.0,15.0,40,-99.99,,,-99.99,601.099976,,2013-03-11 16:43:00,
2013-03-11 10:52:00,41.0,19.0,30.22,West,268,12.0,15.0,40,-99.99,,,-99.99,601.099976,,2013-03-11 16:52:00,
2013-03-11 11:02:00,41.0,19.0,30.22,West,268,12.0,15.0,40,-99.99,,,-99.99,601.099976,,2013-03-11 17:02:00,
2013-03-11 11:14:00,41.0,19.0,30.22,West,268,12.0,15.0,40,-99.99,,,-99.99,601.099976,,2013-03-11 17:14:00,
2013-03-11 11:35:00,45.0,19.0,30.22,West,267,13.0,17.0,34,-99.99,,,-99.99,733.590027,,2013-03-11 17:35:00,
2013-03-11 11:42:00,46.0,19.0,30.22,WSW,255,16.0,22.0,33,-99.99,,,-99.99,769.859985,,2013-03-11 17:42:00,
2013-03-11 11:53:00,46.0,19.0,30.22,WSW,255,16.0,22.0,33,-99.99,,,-99.99,769.859985,,2013-03-11 17:53:00,
2013-03-11 12:02:00,46.0,19.0,30.22,WSW,255,16.0,22.0,33,-99.99,,,-99.99,769.859985,,2013-03-11 18:02:00,
2013-03-11 12:12:00,48.0,19.0,30.22,West,262,18.0,24.0,31,-99.99,,,-99.99,829.830017,,2013-03-11 18:12:00,
2013-03-11 12:23:00,48.0,19.0,30.22,West,262,18.0,24.0,31,-99.99,,,-99.99,829.830017,,2013-03-11 18:23:00,
2013-03-11 12:32:00,48.0,18.0,30.21,WSW,257,18.0,25.0,30,-99.99,,,-99.99,853.539978,,2013-03-11 18:32:00,
2013-03-11 12:42:00,49.0,18.0,30.21,WSW,254,18.0,25.0,29,-99.99,,,-99.99,873.059998,,2013-03-11 18:42:00,
2013-03-11 12:53:00,49.0,18.0,30.21,WSW,254,18.0,25.0,29,-99.99,,,-99.99,873.059998,,2013-03-11 18:53:00,
2013-03-11 13:02:00,49.0,18.0,30.20,West,260,21.0,28.0,28,-99.99,,,-99.99,887.710022,,2013-03-11 19:02:00,
2013-03-11 13:12:00,50.0,17.0,30.19,West,261,23.0,30.0,27,-99.99,,,-99.99,898.859985,,2013-03-11 19:12:00,
2013-03-11 13:22:00,50.0,17.0,30.19,West,261,23.0,30.0,27,-99.99,,,-99.99,898.859985,,2013-03-11 19:22:00,
2013-03-11 13:32:00,50.0,17.0,30.19,West,262,22.0,31.0,26,-99.99,,,-99.99,906.530029,,2013-03-11 19:32:00,
2013-03-11 13:42:00,50.0,16.0,30.18,West,268,23.0,30.0,25,-99.99,,,-99.99,907.929993,,2013-03-11 19:42:00,
2013-03-11 13:53:00,50.0,16.0,30.18,West,268,23.0,30.0,25,-99.99,,,-99.99,907.929993,,2013-03-11 19:53:00,
2013-03-11 14:02:00,51.0,16.0,30.17,West,266,23.0,32.0,25,-99.99,,,-99.99,907.929993,,2013-03-11 20:02:00,
2013-03-11 14:12:00,52.0,17.0,30.16,WSW,254,23.0,30.0,24,-99.99,,,-99.99,902.349976,,2013-03-11 20:12:00,
2013-03-11 14:22:00,52.0,17.0,30.16,WSW,254,23.0,30.0,24,-99.99,,,-99.99,902.349976,,2013-03-11 20:22:00,
2013-03-11 14:32:00,52.0,17.0,30.16,West,273,24.0,33.0,25,-99.99,,,-99.99,893.979980,,2013-03-11 20:32:00,
2013-03-11 14:43:00,52.0,17.0,30.14,WSW,257,25.0,35.0,24,-99.99,,,-99.99,880.030029,,2013-03-11 20:43:00,
2013-03-11 14:53:00,52.0,17.0,30.14,WSW,257,25.0,35.0,24,-99.99,,,-99.99,880.030029,,2013-03-11 20:53:00,
2013-03-11 15:03:00,53.0,17.0,30.14,West,261,26.0,35.0,24,-99.99,,,-99.99,860.510010,,2013-03-11 21:03:00,
2013-03-11 15:12:00,53.0,17.0,30.13,West,259,27.0,36.0,23,-99.99,,,-99.99,827.729980,,2013-03-11 21:12:00,
2013-03-11 15:22:00,53.0,17.0,30.13,West,259,27.0,36.0,23,-99.99,,,-99.99,827.729980,,2013-03-11 21:22:00,
2013-03-11 15:32:00,53.0,17.0,30.12,West,260,26.0,36.0,23,-99.99,,,-99.99,810.299988,,2013-03-11 21:32:00,
2013-03-11 15:43:00,54.0,16.0,30.11,WSW,252,27.0,35.0,22,-99.99,,,-99.99,764.969971,,2013-03-11 21:43:00,
2013-03-11 15:53:00,54.0,16.0,30.11,WSW,252,27.0,35.0,22,-99.99,,,-99.99,764.969971,,2013-03-11 21:53:00,
2013-03-11 16:02:00,54.0,16.0,30.11,WSW,252,27.0,35.0,22,-99.99,,,-99.99,764.969971,,2013-03-11 22:02:00,
2013-03-11 16:12:00,56.0,15.0,30.11,West,266,22.0,31.0,19,-99.99,,,-99.99,705.000000,,2013-03-11 22:12:00,
2013-03-11 16:22:00,56.0,15.0,30.11,West,266,22.0,31.0,19,-99.99,,,-99.99,705.000000,,2013-03-11 22:22:00,
2013-03-11 16:32:00,56.0,14.0,30.10,WSW,258,25.0,34.0,18,-99.99,,,-99.99,664.559998,,2013-03-11 22:32:00,
2013-03-11 16:43:00,57.0,14.0,30.09,WSW,256,25.0,35.0,18,-99.99,,,-99.99,619.929993,,2013-03-11 22:43:00,
2013-03-11 16:53:00,57.0,14.0,30.09,WSW,256,25.0,35.0,18,-99.99,,,-99.99,619.929993,,2013-03-11 22:53:00,
2013-03-11 17:03:00,57.0,13.0,30.09,WSW,257,25.0,34.0,17,-99.99,,,-99.99,558.559998,,2013-03-11 23:03:00,
2013-03-11 17:12:00,57.0,12.0,30.08,WSW,256,25.0,31.0,16,-99.99,,,-99.99,525.090027,,2013-03-11 23:12:00,
2013-03-11 17:22:00,57.0,12.0,30.08,WSW,256,25.0,31.0,16,-99.99,,,-99.99,525.090027,,2013-03-11 23:22:00,
2013-03-11 17:32:00,57.0,12.0,30.08,WSW,250,25.0,33.0,16,-99.99,,,-99.99,473.489990,,2013-03-11 23:32:00,
2013-03-11 17:43:00,57.0,12.0,30.08,WSW,243,23.0,30.0,16,-99.99,,,-99.99,419.100006,,2013-03-11 23:43:00,
2013-03-11 17:53:00,57.0,12.0,30.08,WSW,243,23.0,30.0,16,-99.99,,,-99.99,419.100006,,2013-03-11 23:53:00,
2013-03-11 18:02:00,57.0,12.0,30.08,WSW,243,23.0,30.0,16,-99.99,,,-99.99,419.100006,,2013-03-12 00:02:00,
2013-03-11 18:12:00,57.0,12.0,30.08,West,261,22.0,30.0,16,-99.99,,,-99.99,308.220001,,2013-03-12 00:12:00,
2013-03-11 18:23:00,57.0,12.0,30.08,West,261,22.0,30.0,16,-99.99,,,-99.99,308.220001,,2013-03-12 00:23:00,
2013-03-11 18:33:00,57.0,13.0,30.07,WSW,253,23.0,29.0,17,-99.99,,,-99.99,218.270004,,2013-03-12 00:33:00,
2013-03-11 18:42:00,57.0,13.0,30.08,WSW,251,23.0,30.0,17,-99.99,,,-99.99,161.080002,,2013-03-12 00:42:00,
2013-03-11 18:53:00,57.0,13.0,30.08,WSW,251,23.0,30.0,17,-99.99,,,-99.99,161.080002,,2013-03-12 00:53:00,
2013-03-11 19:02:00,56.0,13.0,30.08,WSW,254,22.0,27.0,17,-99.99,,,-99.99,140.160004,,2013-03-12 01:02:00,
2013-03-11 19:12:00,56.0,13.0,30.08,WSW,252,24.0,33.0,17,-99.99,,,-99.99,77.400002,,2013-03-12 01:12:00,
2013-03-11 19:22:00,56.0,13.0,30.08,WSW,252,24.0,33.0,17,-99.99,,,-99.99,77.400002,,2013-03-12 01:22:00,
2013-03-11 19:32:00,55.0,13.0,30.07,WSW,249,26.0,30.0,18,-99.99,,,-99.99,27.200001,,2013-03-12 01:32:00,
2013-03-11 19:42:00,54.0,12.0,30.07,WSW,248,25.0,31.0,18,-99.99,,,-99.99,7.670000,,2013-03-12 01:42:00,
2013-03-11 19:52:00,54.0,12.0,30.07,WSW,248,25.0,31.0,18,-99.99,,,-99.99,7.670000,,2013-03-12 01:52:00,
2013-03-11 20:02:00,54.0,12.0,30.08,WSW,252,24.0,30.0,18,-99.99,,,-99.99,1.390000,,2013-03-12 02:02:00,
2013-03-11 20:12:00,53.0,12.0,30.08,WSW,252,25.0,31.0,18,-99.99,,,-99.99,0.000000,,2013-03-12 02:12:00,
2013-03-11 20:22:00,53.0,12.0,30.08,WSW,252,25.0,31.0,18,-99.99,,,-99.99,0.000000,,2013-03-12 02:22:00,
2013-03-11 20:32:00,53.0,11.0,30.08,WSW,247,23.0,29.0,18,-99.99,,,-99.99,0.000000,,2013-03-12 02:32:00,
2013-03-11 20:42:00,53.0,11.0,30.09,WSW,250,21.0,29.0,18,-99.99,,,-99.99,0.000000,,2013-03-12 02:42:00,
2013-03-11 20:52:00,53.0,11.0,30.09,WSW,250,21.0,29.0,18,-99.99,,,-99.99,0.000000,,2013-03-12 02:52:00,
2013-03-11 21:02:00,53.0,11.0,30.09,WSW,250,21.0,29.0,18,-99.99,,,-99.99,0.000000,,2013-03-12 03:02:00,
2013-03-11 21:12:00,54.0,11.0,30.09,WSW,238,20.0,27.0,17,-99.99,,,-99.99,0.000000,,2013-03-12 03:12:00,
2013-03-11 21:22:00,54.0,11.0,30.09,WSW,238,20.0,27.0,17,-99.99,,,-99.99,0.000000,,2013-03-12 03:22:00,
2013-03-11 21:32:00,53.0,10.0,30.10,WSW,250,20.0,25.0,17,-99.99,,,-99.99,0.000000,,2013-03-12 03:32:00,
2013-03-11 21:42:00,54.0,10.0,30.10,WSW,250,23.0,30.0,17,-99.99,,,-99.99,0.000000,,2013-03-12 03:42:00,
2013-03-11 21:53:00,54.0,10.0,30.10,WSW,250,23.0,30.0,17,-99.99,,,-99.99,0.000000,,2013-03-12 03:53:00,
2013-03-11 22:02:00,54.0,10.0,30.10,WSW,250,23.0,30.0,17,-99.99,,,-99.99,0.000000,,2013-03-12 04:02:00,
2013-03-11 22:13:00,54.0,10.0,30.10,WSW,252,24.0,29.0,17,-99.99,,,-99.99,0.000000,,2013-03-12 04:13:00,
2013-03-11 22:22:00,54.0,10.0,30.10,WSW,252,24.0,29.0,17,-99.99,,,-99.99,0.000000,,2013-03-12 04:22:00,
2013-03-11 22:32:00,54.0,9.0,30.10,WSW,245,23.0,32.0,16,-99.99,,,-99.99,0.000000,,2013-03-12 04:32:00,
2013-03-11 22:43:00,54.0,9.0,30.10,WSW,250,25.0,32.0,16,-99.99,,,-99.99,0.000000,,2013-03-12 04:43:00,
2013-03-11 22:52:00,54.0,9.0,30.10,WSW,250,25.0,32.0,16,-99.99,,,-99.99,0.000000,,2013-03-12 04:52:00,
2013-03-11 23:02:00,53.0,11.0,30.10,WSW,253,24.0,33.0,17,-99.99,,,-99.99,0.000000,,2013-03-12 05:02:00,
2013-03-11 23:12:00,53.0,11.0,30.11,WSW,252,22.0,32.0,17,-99.99,,,-99.99,0.000000,,2013-03-12 05:12:00,
2013-03-11 23:22:00,53.0,11.0,30.11,WSW,252,22.0,32.0,17,-99.99,,,-99.99,0.000000,,2013-03-12 05:22:00,
2013-03-11 23:32:00,53.0,9.0,30.11,WSW,251,24.0,30.0,16,-99.99,,,-99.99,0.000000,,2013-03-12 05:32:00,
2013-03-11 23:42:00,52.0,10.0,30.11,WSW,249,20.0,28.0,17,-99.99,,,-99.99,0.000000,,2013-03-12 05:42:00,
2013-03-11 23:52:00,52.0,10.0,30.11,WSW,249,20.0,28.0,17,-99.99,,,-99.99,0.000000,,2013-03-12 05:52:00,